| time (UTC) | temp C | wind direction | speed KPH | gust KPH | rain 1hr cm | rain 24hr cm | rain mn cm | humidity % | barometer mb |
| 20260504141030 | 14 | 203 | 4.8 | 12.9 | 0.00 | 0.00 | 0.00 | 45 | 1009.7 |
| 20260504140523 | 13 | 193 | 4.8 | 9.7 | 0.00 | 0.00 | 0.00 | 43 | 1009.7 |
| 20260504130522 | 12 | 243 | 3.2 | 11.3 | 0.00 | 0.00 | 0.00 | 51 | 1010.0 |
| 20260504110530 | 2 | 281 | 1.6 | 3.2 | 0.00 | 0.00 | 0.00 | 85 | 1010.6 |
| 20260504100537 | 1 | 278 | 0.0 | 3.2 | 0.00 | 0.00 | 0.00 | 85 | 1010.2 |
| 20260504081531 | 1 | 271 | 0.0 | 1.6 | 0.00 | 0.00 | 0.00 | 86 | 1009.8 |
| 20260504081046 | 1 | 271 | 0.0 | 3.2 | 0.00 | 0.00 | 0.00 | 85 | 1009.8 |
| 20260504080559 | 1 | 271 | 0.0 | 3.2 | 0.00 | 0.00 | 0.00 | 85 | 1009.8 |
| 20260504050534 | 1 | 273 | 0.0 | 1.6 | 0.00 | 0.00 | 0.00 | 80 | 1010.1 |
| 20260504045534 | 1 | 273 | 0.0 | 0.0 | 0.00 | 0.00 | 0.00 | 79 | 1009.9 |
| 20260504045029 | 1 | 273 | 0.0 | 0.0 | 0.00 | 0.00 | 0.00 | 79 | 1010.0 |
| 20260504044543 | 1 | 273 | 0.0 | 0.0 | 0.00 | 0.00 | 0.00 | 79 | 1010.1 |
| 20260504044029 | 1 | 273 | 0.0 | 0.0 | 0.00 | 0.00 | 0.00 | 79 | 1010.1 |
| 20260504043526 | 1 | 273 | 0.0 | 0.0 | 0.00 | 0.00 | 0.00 | 78 | 1010.2 |
| 20260504043030 | 1 | 273 | 0.0 | 0.0 | 0.00 | 0.00 | 0.00 | 78 | 1010.2 |
| 20260504042524 | 1 | 273 | 0.0 | 0.0 | 0.00 | 0.00 | 0.00 | 77 | 1010.2 |
| 20260504042030 | 1 | 273 | 0.0 | 0.0 | 0.00 | 0.00 | 0.00 | 76 | 1010.1 |
| 20260504041525 | 1 | 273 | 0.0 | 0.0 | 0.00 | 0.00 | 0.00 | 76 | 1010.1 |
| 20260504041040 | 1 | 273 | 0.0 | 0.0 | 0.00 | 0.00 | 0.00 | 76 | 1010.2 |
| 20260504040546 | 1 | 273 | 0.0 | 0.0 | 0.00 | 0.00 | 0.00 | 76 | 1010.1 |
| 20260504040038 | 1 | 273 | 0.0 | 0.0 | 0.00 | 0.00 | 0.00 | 75 | 1010.1 |
| 20260504035531 | 2 | 273 | 0.0 | 0.0 | 0.00 | 0.00 | 0.00 | 75 | 1010.0 |
| 20260504035040 | 2 | 273 | 0.0 | 0.0 | 0.00 | 0.00 | 0.00 | 74 | 1010.0 |
| 20260504034534 | 2 | 273 | 0.0 | 0.0 | 0.00 | 0.00 | 0.00 | 74 | 1009.9 |
| 20260504034027 | 2 | 275 | 0.0 | 0.0 | 0.00 | 0.00 | 0.00 | 74 | 1009.9 |
| 20260504033522 | 2 | 275 | 0.0 | 0.0 | 0.00 | 0.00 | 0.00 | 72 | 1009.9 |
| 20260504033028 | 2 | 275 | 0.0 | 0.0 | 0.00 | 0.00 | 0.00 | 72 | 1009.8 |
| 20260504032522 | 2 | 275 | 0.0 | 0.0 | 0.00 | 0.00 | 0.00 | 73 | 1009.8 |
| 20260504032037 | 2 | 275 | 0.0 | 0.0 | 0.00 | 0.00 | 0.00 | 72 | 1009.8 |
| 20260504031524 | 2 | 275 | 0.0 | 0.0 | 0.00 | 0.00 | 0.00 | 72 | 1009.7 |
| 20260504031038 | 3 | 275 | 0.0 | 0.0 | 0.00 | 0.00 | 0.00 | 71 | 1009.7 |
| 20260504030524 | 3 | 275 | 0.0 | 0.0 | 0.00 | 0.00 | 0.00 | 70 | 1009.6 |
| 20260504030054 | 3 | 275 | 0.0 | 0.0 | 0.00 | 0.00 | 0.00 | 70 | 1009.6 |
| 20260504025529 | 3 | 275 | 0.0 | 0.0 | 0.00 | 0.00 | 0.00 | 71 | 1009.6 |
| 20260504025044 | 3 | 275 | 0.0 | 0.0 | 0.00 | 0.00 | 0.00 | 70 | 1009.6 |
| 20260504024527 | 3 | 275 | 0.0 | 0.0 | 0.00 | 0.00 | 0.00 | 70 | 1009.6 |
| 20260504024042 | 3 | 275 | 0.0 | 0.0 | 0.00 | 0.00 | 0.00 | 69 | 1009.6 |
| 20260504023535 | 3 | 275 | 0.0 | 0.0 | 0.00 | 0.00 | 0.00 | 69 | 1009.6 |
| 20260504023042 | 3 | 275 | 0.0 | 0.0 | 0.00 | 0.00 | 0.00 | 68 | 1009.6 |
| 20260504022536 | 4 | 275 | 0.0 | 1.6 | 0.00 | 0.00 | 0.00 | 66 | 1009.6 |
| 20260504022051 | 4 | 275 | 0.0 | 1.6 | 0.00 | 0.00 | 0.00 | 65 | 1009.6 |
| 20260504021100 | 4 | 275 | 0.0 | 1.6 | 0.00 | 0.00 | 0.00 | 64 | 1009.6 |
| 20260504020526 | 5 | 275 | 0.0 | 1.6 | 0.00 | 0.00 | 0.00 | 63 | 1009.6 |
| 20260504020040 | 5 | 276 | 0.0 | 3.2 | 0.00 | 0.00 | 0.00 | 63 | 1009.5 |
| 20260504015551 | 5 | 276 | 0.0 | 3.2 | 0.00 | 0.00 | 0.00 | 61 | 1009.5 |
| 20260504015036 | 5 | 276 | 0.0 | 3.2 | 0.00 | 0.00 | 0.00 | 59 | 1009.4 |
| 20260504014530 | 5 | 276 | 0.0 | 3.2 | 0.00 | 0.00 | 0.00 | 59 | 1009.4 |
| 20260504014036 | 5 | 281 | 0.0 | 1.6 | 0.00 | 0.00 | 0.00 | 59 | 1009.3 |
| 20260504013531 | 6 | 281 | 0.0 | 3.2 | 0.00 | 0.00 | 0.00 | 58 | 1009.2 |
| 20260504013044 | 6 | 286 | 0.0 | 3.2 | 0.00 | 0.00 | 0.00 | 58 | 1009.1 |
| 20260504012530 | 6 | 286 | 0.0 | 1.6 | 0.00 | 0.00 | 0.00 | 56 | 1009.1 |
| 20260504012105 | 6 | 286 | 0.0 | 3.2 | 0.00 | 0.00 | 0.00 | 53 | 1009.1 |
| 20260504011554 | 7 | 286 | 0.0 | 3.2 | 0.00 | 0.00 | 0.00 | 52 | 1009.1 |
| 20260504011048 | 7 | 5 | 0.0 | 3.2 | 0.00 | 0.00 | 0.00 | 50 | 1009.0 |
| 20260504010554 | 7 | 36 | 0.0 | 4.8 | 0.00 | 0.00 | 0.00 | 51 | 1009.0 |
| 20260504010027 | 7 | 40 | 1.6 | 4.8 | 0.00 | 0.00 | 0.00 | 48 | 1008.9 |
| 20260504005542 | 7 | 217 | 0.0 | 3.2 | 0.00 | 0.00 | 0.00 | 47 | 1008.9 |
| 20260504005027 | 7 | 217 | 0.0 | 3.2 | 0.00 | 0.00 | 0.00 | 48 | 1008.8 |
| 20260504004541 | 7 | 255 | 0.0 | 8.0 | 0.00 | 0.00 | 0.00 | 46 | 1008.7 |
| 20260504004055 | 7 | 259 | 1.6 | 8.0 | 0.00 | 0.00 | 0.00 | 46 | 1008.6 |
| 20260504003609 | 7 | 300 | 1.6 | 6.4 | 0.00 | 0.00 | 0.00 | 45 | 1008.6 |
| 20260504003034 | 7 | 331 | 1.6 | 6.4 | 0.00 | 0.00 | 0.00 | 45 | 1008.5 |
| 20260504002527 | 7 | 228 | 1.6 | 4.8 | 0.00 | 0.00 | 0.00 | 45 | 1008.5 |
| 20260504002035 | 7 | 259 | 1.6 | 8.0 | 0.00 | 0.00 | 0.00 | 43 | 1008.3 |
| 20260504001529 | 8 | 248 | 4.8 | 11.3 | 0.00 | 0.00 | 0.00 | 42 | 1008.2 |
| 20260504001042 | 8 | 10 | 1.6 | 8.0 | 0.00 | 0.00 | 0.00 | 44 | 1008.1 |
| 20260504000527 | 8 | 298 | 4.8 | 11.3 | 0.00 | 0.00 | 0.00 | 42 | 1008.1 |
| 20260504000043 | 8 | 306 | 3.2 | 11.3 | 0.00 | 0.00 | 0.00 | 41 | 1008.1 |
| 20260503235528 | 8 | 321 | 4.8 | 8.0 | 0.00 | 0.00 | 0.00 | 40 | 1008.0 |
| 20260503235042 | 8 | 312 | 0.0 | 6.4 | 0.00 | 0.00 | 0.00 | 41 | 1008.0 |
| 20260503234529 | 8 | 319 | 3.2 | 12.9 | 0.00 | 0.00 | 0.00 | 40 | 1007.9 |
| 20260503234043 | 8 | 318 | 3.2 | 12.9 | 0.00 | 0.00 | 0.00 | 41 | 1007.9 |
| 20260503233538 | 8 | 258 | 1.6 | 11.3 | 0.00 | 0.00 | 0.00 | 38 | 1007.8 |
| 20260503233024 | 8 | 309 | 1.6 | 6.4 | 0.00 | 0.00 | 0.00 | 37 | 1007.9 |
| 20260503232536 | 8 | 261 | 0.0 | 16.1 | 0.00 | 0.00 | 0.00 | 39 | 1007.8 |
| 20260503232051 | 8 | 224 | 1.6 | 16.1 | 0.00 | 0.00 | 0.00 | 37 | 1007.8 |
| 20260503231537 | 8 | 292 | 3.2 | 9.7 | 0.00 | 0.00 | 0.00 | 36 | 1007.8 |
| 20260503231051 | 8 | 319 | 3.2 | 12.9 | 0.00 | 0.00 | 0.00 | 37 | 1007.7 |
| 20260503230537 | 8 | 306 | 4.8 | 12.9 | 0.00 | 0.00 | 0.00 | 36 | 1007.7 |
| 20260503230032 | 9 | 313 | 3.2 | 11.3 | 0.00 | 0.00 | 0.00 | 36 | 1007.7 |
| 20260503225602 | 9 | 321 | 3.2 | 11.3 | 0.00 | 0.00 | 0.00 | 35 | 1007.5 |
| 20260503225028 | 9 | 200 | 1.6 | 16.1 | 0.00 | 0.00 | 0.00 | 35 | 1007.7 |
| 20260503224602 | 9 | 312 | 4.8 | 16.1 | 0.00 | 0.00 | 0.00 | 35 | 1007.6 |
| 20260503224035 | 9 | 179 | 3.2 | 14.5 | 0.00 | 0.00 | 0.00 | 36 | 1007.7 |
| 20260503223549 | 9 | 229 | 6.4 | 14.5 | 0.00 | 0.00 | 0.00 | 35 | 1007.6 |
| 20260503223035 | 9 | 232 | 3.2 | 16.1 | 0.00 | 0.00 | 0.00 | 35 | 1007.5 |
| 20260503222549 | 9 | 355 | 8.0 | 16.1 | 0.00 | 0.00 | 0.00 | 35 | 1007.7 |
| 20260503222043 | 9 | 310 | 4.8 | 11.3 | 0.00 | 0.00 | 0.00 | 36 | 1007.5 |
| 20260503221527 | 9 | 211 | 3.2 | 14.5 | 0.00 | 0.00 | 0.00 | 36 | 1007.5 |
| 20260503221041 | 10 | 227 | 4.8 | 16.1 | 0.00 | 0.00 | 0.00 | 36 | 1007.5 |
| 20260503220528 | 10 | 317 | 6.4 | 16.1 | 0.00 | 0.00 | 0.00 | 35 | 1007.6 |
| 20260503220042 | 10 | 59 | 4.8 | 16.1 | 0.00 | 0.00 | 0.00 | 36 | 1007.6 |
| 20260503215528 | 10 | 355 | 4.8 | 16.1 | 0.00 | 0.00 | 0.00 | 36 | 1007.5 |
| 20260503215058 | 10 | 259 | 6.4 | 11.3 | 0.00 | 0.00 | 0.00 | 37 | 1007.4 |
| 20260503214531 | 10 | 345 | 3.2 | 8.0 | 0.00 | 0.00 | 0.00 | 38 | 1007.4 |
| 20260503214045 | 10 | 279 | 3.2 | 12.9 | 0.00 | 0.00 | 0.00 | 39 | 1007.4 |
| 20260503213530 | 10 | 331 | 6.4 | 16.1 | 0.00 | 0.00 | 0.00 | 38 | 1007.4 |
| 20260503213045 | 10 | 213 | 4.8 | 16.1 | 0.00 | 0.00 | 0.00 | 38 | 1007.3 |
| 20260503212559 | 10 | 259 | 4.8 | 16.1 | 0.00 | 0.00 | 0.00 | 39 | 1007.3 |
| 20260503212033 | 10 | 227 | 6.4 | 20.9 | 0.00 | 0.00 | 0.00 | 38 | 1007.3 |
| 20260503211548 | 10 | 298 | 9.7 | 20.9 | 0.00 | 0.00 | 0.00 | 38 | 1007.1 |
| 20260503211033 | 10 | 280 | 3.2 | 14.5 | 0.00 | 0.00 | 0.00 | 41 | 1007.3 |
| 20260503210548 | 10 | 304 | 3.2 | 14.5 | 0.00 | 0.00 | 0.00 | 41 | 1007.4 |
| 20260503205526 | 10 | 300 | 8.0 | 14.5 | 0.00 | 0.00 | 0.00 | 39 | 1007.4 |
| 20260503205038 | 10 | 190 | 8.0 | 14.5 | 0.00 | 0.00 | 0.00 | 39 | 1007.2 |
| 20260503204532 | 10 | 318 | 3.2 | 9.7 | 0.00 | 0.00 | 0.00 | 41 | 1007.4 |
| 20260503204035 | 10 | 241 | 3.2 | 11.3 | 0.00 | 0.00 | 0.00 | 41 | 1007.4 |
| 20260503203528 | 9 | 227 | 3.2 | 9.7 | 0.00 | 0.00 | 0.00 | 44 | 1007.6 |
| 20260503203040 | 9 | 303 | 3.2 | 12.9 | 0.00 | 0.00 | 0.00 | 43 | 1007.6 |
| 20260503202524 | 9 | 355 | 3.2 | 11.3 | 0.00 | 0.00 | 0.00 | 44 | 1007.6 |
| 20260503202035 | 8 | 244 | 6.4 | 17.7 | 0.00 | 0.00 | 0.00 | 43 | 1007.6 |
| 20260503201540 | 9 | 298 | 8.0 | 16.1 | 0.00 | 0.00 | 0.00 | 43 | 1007.5 |
| 20260503201032 | 8 | 314 | 4.8 | 16.1 | 0.00 | 0.00 | 0.00 | 45 | 1007.5 |
| 20260503200546 | 8 | 223 | 3.2 | 12.9 | 0.00 | 0.00 | 0.00 | 46 | 1007.6 |
| 20260503200030 | 8 | 343 | 3.2 | 16.1 | 0.00 | 0.00 | 0.00 | 44 | 1007.7 |
| 20260503195543 | 8 | 302 | 3.2 | 12.9 | 0.00 | 0.00 | 0.00 | 46 | 1007.8 |
| 20260503195037 | 8 | 294 | 6.4 | 22.5 | 0.00 | 0.00 | 0.00 | 45 | 1007.8 |
| 20260503194541 | 8 | 328 | 4.8 | 22.5 | 0.00 | 0.00 | 0.00 | 45 | 1007.9 |
| 20260503194034 | 8 | 265 | 4.8 | 14.5 | 0.00 | 0.00 | 0.00 | 45 | 1007.9 |
| 20260503193548 | 8 | 329 | 3.2 | 14.5 | 0.00 | 0.00 | 0.00 | 46 | 1007.8 |
| 20260503193034 | 8 | 329 | 3.2 | 16.1 | 0.00 | 0.00 | 0.00 | 47 | 1007.8 |
| 20260503192528 | 8 | 202 | 6.4 | 19.3 | 0.00 | 0.00 | 0.00 | 45 | 1007.9 |
| 20260503192033 | 8 | 292 | 8.0 | 19.3 | 0.00 | 0.00 | 0.00 | 44 | 1007.8 |
| 20260503191528 | 8 | 325 | 6.4 | 19.3 | 0.00 | 0.00 | 0.00 | 46 | 1007.8 |
| 20260503191101 | 8 | 194 | 6.4 | 17.7 | 0.00 | 0.00 | 0.00 | 45 | 1007.8 |
| 20260503190527 | 8 | 303 | 4.8 | 20.9 | 0.00 | 0.00 | 0.00 | 46 | 1007.8 |
| 20260503190058 | 8 | 355 | 8.0 | 20.9 | 0.00 | 0.00 | 0.00 | 45 | 1007.8 |
| 20260503185524 | 8 | 291 | 4.8 | 14.5 | 0.00 | 0.00 | 0.00 | 46 | 1007.7 |
| 20260503185039 | 8 | 225 | 6.4 | 14.5 | 0.00 | 0.00 | 0.00 | 45 | 1007.8 |
| 20260503184609 | 8 | 346 | 4.8 | 17.7 | 0.00 | 0.00 | 0.00 | 45 | 1007.8 |
| 20260503184034 | 8 | 244 | 3.2 | 20.9 | 0.00 | 0.00 | 0.00 | 45 | 1007.9 |
| 20260503183527 | 8 | 303 | 3.2 | 20.9 | 0.00 | 0.00 | 0.00 | 48 | 1007.7 |
| 20260503183101 | 7 | 334 | 4.8 | 16.1 | 0.00 | 0.00 | 0.00 | 45 | 1007.9 |
| 20260503182526 | 7 | 337 | 4.8 | 16.1 | 0.00 | 0.00 | 0.00 | 45 | 1007.9 |
| 20260503182040 | 7 | 344 | 6.4 | 16.1 | 0.00 | 0.00 | 0.00 | 45 | 1007.7 |
| 20260503181525 | 8 | 332 | 8.0 | 16.1 | 0.00 | 0.00 | 0.00 | 44 | 1007.8 |
| 20260503181040 | 8 | 325 | 6.4 | 16.1 | 0.00 | 0.00 | 0.00 | 43 | 1007.8 |
| 20260503180534 | 8 | 346 | 6.4 | 14.5 | 0.00 | 0.00 | 0.00 | 45 | 1007.7 |
| 20260503180039 | 7 | 222 | 4.8 | 20.9 | 0.00 | 0.00 | 0.00 | 46 | 1007.7 |
| 20260503175533 | 7 | 304 | 4.8 | 20.9 | 0.00 | 0.00 | 0.00 | 46 | 1007.8 |
| 20260503175046 | 7 | 306 | 8.0 | 17.7 | 0.00 | 0.00 | 0.00 | 45 | 1007.8 |
| 20260503174529 | 8 | 355 | 3.2 | 11.3 | 0.00 | 0.00 | 0.00 | 48 | 1007.8 |
| 20260503174042 | 7 | 237 | 3.2 | 11.3 | 0.00 | 0.00 | 0.00 | 49 | 1007.8 |
| 20260503173528 | 7 | 304 | 4.8 | 16.1 | 0.00 | 0.00 | 0.00 | 47 | 1007.7 |
| 20260503173101 | 7 | 346 | 4.8 | 24.1 | 0.00 | 0.00 | 0.00 | 47 | 1007.7 |
| 20260503172534 | 8 | 132 | 6.4 | 24.1 | 0.00 | 0.00 | 0.00 | 45 | 1007.6 |
| 20260503172046 | 7 | 232 | 8.0 | 19.3 | 0.00 | 0.00 | 0.00 | 46 | 1007.7 |
| 20260503171551 | 7 | 5 | 8.0 | 19.3 | 0.00 | 0.00 | 0.00 | 46 | 1007.6 |
| 20260503171024 | 7 | 5 | 6.4 | 16.1 | 0.00 | 0.00 | 0.00 | 45 | 1007.8 |
| 20260503170525 | 7 | 332 | 4.8 | 16.1 | 0.00 | 0.00 | 0.00 | 44 | 1007.8 |
| 20260503150538 | 6 | 329 | 3.2 | 14.5 | 0.00 | 0.03 | 0.00 | 63 | 1008.1 |